Change the Weather History Date:

Saturday, March 24, 2012

  Actual Average Record
Temperature  
Mean Temperature 79 °F 75 °F  
Max Temperature 84 °F 80 °F 88 °F (2013)
Min Temperature 74 °F 69 °F 64 °F (1999)
Degree Days  
Heating Degree Days 0 0  
Month to date heating degree days 0 0  
Since 1 July heating degree days 33 75  
Cooling Degree Days 14 10  
Month to date cooling degree days 310 210  
Year to date cooling degree days 821 592  
Growing Degree Days 28 (Base 50)    
Moisture  
Dew Point 64 °F    
Average Humidity 60    
Maximum Humidity 69    
Minimum Humidity 51    
Precipitation  
Precipitation 0.00 in 0.07 in 0.29 in (2015)
Month to date precipitation 1.41 1.80  
Year to date precipitation 4.07 5.62  
Snow  
Snow 0.00 in - - ()
Month to date snowfall 0.0  
Since 1 July snowfall 0.0  
Snow Depth 0.00 in    
Sea Level Pressure  
Sea Level Pressure 30.01 in    
Wind  
Wind Speed 6 mph (ESE)    
Max Wind Speed 9 mph    
Max Gust Speed 17 mph    
Visibility 10 miles    
Events      
T = Trace of Precipitation, MM = Missing Value Source: NWS Daily Summary

Daily Weather History Graph

Daily Weather History Graph

Search for Another Location

Airport or City:

Trip Planner

Search our weather history database for the weather conditions in past years. The results will help you decide how hot, cold, wet, or windy it might be!

Date:

Astronomy

Mar. 24, 2012 Rise Set
Actual Time 7:23 AM EDT 7:37 PM EDT
Civil Twilight 7:00 AM EDT 8:00 PM EDT
Nautical Twilight 6:34 AM EDT 8:26 PM EDT
Astronomical Twilight 6:07 AM EDT 8:53 PM EDT
Moon 8:19 AM EDT (3/24) 9:34 PM EDT (3/24)
Length of Visible Light 12h 59m
Length of Day
12h 13m
Waxing Crescent, 4% of the Moon is Illuminated
Mar 24
Waxing Crescent
Mar 30
First Quarter
Apr 6
Full
Apr 13
Last Quarter
Apr 21
New

Hourly Weather History & Observations

Time (EDT) Temp. Heat Index Dew Point Humidity Pressure Visibility Wind Dir Wind Speed Gust Speed Precip Events Conditions
12:53 AM 75.0 °F - 62.1 °F 64% 30.04 in 10.0 mi ESE 6.9 mph - N/A   Clear
1:53 AM 75.9 °F - 64.0 °F 67% 30.04 in 10.0 mi ESE 4.6 mph - N/A   Mostly Cloudy
2:53 AM 75.0 °F - 63.0 °F 66% 30.02 in 10.0 mi Variable 5.8 mph - N/A   Partly Cloudy
3:53 AM 75.0 °F - 62.1 °F 64% 30.01 in 10.0 mi East 5.8 mph - N/A   Clear
4:53 AM 75.0 °F - 62.1 °F 64% 30.00 in 10.0 mi ESE 4.6 mph - N/A   Partly Cloudy
5:53 AM 75.0 °F - 63.0 °F 66% 30.01 in 10.0 mi ESE 5.8 mph - N/A   Partly Cloudy
6:53 AM 73.9 °F - 63.0 °F 68% 30.02 in 10.0 mi East 4.6 mph - N/A   Partly Cloudy
7:53 AM 75.9 °F - 64.0 °F 67% 30.03 in 10.0 mi ESE 5.8 mph - N/A   Mostly Cloudy
8:53 AM 78.1 °F - 64.0 °F 62% 30.04 in 10.0 mi ESE 5.8 mph - N/A   Clear
9:53 AM 80.1 °F 81.9 °F 64.9 °F 60% 30.05 in 10.0 mi ESE 6.9 mph - N/A   Clear
10:53 AM 82.0 °F 83.8 °F 64.9 °F 56% 30.06 in 10.0 mi Variable 6.9 mph - N/A   Partly Cloudy
11:53 AM 82.9 °F 84.6 °F 64.9 °F 54% 30.05 in 10.0 mi SE 4.6 mph - N/A   Clear
12:53 PM 84.0 °F 85.8 °F 64.9 °F 53% 30.04 in 10.0 mi Variable 5.8 mph - N/A   Clear
1:53 PM 82.9 °F 84.4 °F 64.0 °F 53% 30.02 in 10.0 mi Variable 5.8 mph - N/A   Clear
2:53 PM 82.9 °F 84.6 °F 64.9 °F 54% 29.99 in 10.0 mi Variable 5.8 mph - N/A   Clear
3:53 PM 82.9 °F 84.6 °F 64.9 °F 54% 29.97 in 10.0 mi SE 6.9 mph - N/A   Clear
4:53 PM 82.0 °F 83.8 °F 64.9 °F 56% 29.96 in 10.0 mi SE 5.8 mph - N/A   Clear
5:53 PM 81.0 °F 82.7 °F 64.9 °F 58% 29.97 in 10.0 mi Variable 5.8 mph - N/A   Clear
6:53 PM 79.0 °F - 63.0 °F 58% 29.97 in 10.0 mi SSE 5.8 mph - N/A   Clear
7:53 PM 77.0 °F - 63.0 °F 62% 29.97 in 10.0 mi Calm Calm - N/A   Clear
8:53 PM 75.9 °F - 64.0 °F 67% 29.98 in 10.0 mi Calm Calm - N/A   Clear
9:53 PM 75.9 °F - 64.9 °F 69% 29.99 in 10.0 mi ESE 3.5 mph - N/A   Clear
10:53 PM 75.9 °F - 64.9 °F 69% 30.00 in 10.0 mi SE 4.6 mph - N/A   Clear
11:53 PM 77.0 °F - 66.0 °F 69% 30.00 in 10.0 mi SSE 5.8 mph - N/A   Clear